STARLINK-35829

Last updated on Sun Dec 07 2025 00:02:05 GMT+0000 (Coordinated Universal Time)

1 66350U 25254C 25340.58335648 -.00118484 00000+0 -21512-2 0 9994 2 66350 53.1604 306.0313 0001036 80.6615 333.4709 15.49355141 5937
UTC large
Height (km)
Speed (km/s)
/
Latitude / Longitude
Inclination (degrees)
Orbital Period (minutes)
Azimuth
Elevation
Range (km)
Doppler Factor

Next 0 passes for location: London (51.5072 / 0.1276)

Sorry there are no passes over London.